ENY4251 KMIA-KJAX

Flight info

Callsign ENY4251
Flight time N/A
Altitude 29000
Route FLMGO2 STYMY ORL/N0413F290 HAINY QUBEN1
Aircraft E75L/M-SDE3GILORVW/S

Departure

Time 2026-05-05 14:19
Airport Miami International Airport (KMIA)

Arrival

Time N/A
Airport Jacksonville International Airport (KJAX)
Time Latitude Longitude Altitude Speed Heading
2026-05-05 13:43 25.79722 -80.28493 13 ft 0 kts
2026-05-05 14:06 25.79720 -80.28493 13 ft 0 kts
2026-05-05 14:06 25.79719 -80.28494 13 ft 0 kts
2026-05-05 14:07 25.79717 -80.28494 13 ft 0 kts
2026-05-05 14:07 25.79705 -80.28495 13 ft 2 kts
2026-05-05 14:07 25.79688 -80.28496 14 ft 2 kts
2026-05-05 14:07 25.79673 -80.28493 13 ft 2 kts 306°
2026-05-05 14:08 25.79671 -80.28491 13 ft 0 kts 284°
2026-05-05 14:10 25.79670 -80.28503 13 ft 5 kts 263°
2026-05-05 14:11 25.79659 -80.28559 14 ft 7 kts 254°
2026-05-05 14:11 25.79647 -80.28633 14 ft 12 kts 264°
2026-05-05 14:11 25.79640 -80.28741 13 ft 14 kts 270°
2026-05-05 14:11 25.79641 -80.28774 13 ft 0 kts 267°
2026-05-05 14:12 25.79647 -80.28787 13 ft 2 kts 314°
2026-05-05 14:12 25.79655 -80.28788 14 ft 0 kts 358°
2026-05-05 14:13 25.79662 -80.28791 13 ft 8 kts 336°
2026-05-05 14:13 25.79680 -80.28809 13 ft 0 kts 277°
2026-05-05 14:13 25.79678 -80.28811 13 ft 1 kts 235°
2026-05-05 14:13 25.79665 -80.28825 13 ft 5 kts 230°
2026-05-05 14:14 25.79654 -80.28858 13 ft 4 kts 257°
2026-05-05 14:14 25.79658 -80.28884 13 ft 0 kts 314°
2026-05-05 14:14 25.79668 -80.28889 14 ft 6 kts 340°
2026-05-05 14:14 25.79739 -80.28908 13 ft 13 kts 356°
2026-05-05 14:15 25.79840 -80.28913 13 ft 16 kts 358°
2026-05-05 14:15 25.79878 -80.28915 15 ft 1 kts 355°
2026-05-05 14:15 25.79902 -80.28917 13 ft 9 kts 356°
2026-05-05 14:15 25.80004 -80.28961 15 ft 19 kts 290°
2026-05-05 14:16 25.80005 -80.29116 14 ft 21 kts 268°
2026-05-05 14:16 25.79996 -80.29293 14 ft 25 kts 268°
2026-05-05 14:16 25.79987 -80.29494 12 ft 28 kts 267°
2026-05-05 14:16 25.79978 -80.29714 12 ft 29 kts 264°
2026-05-05 14:17 25.79970 -80.29917 11 ft 12 kts 270°
2026-05-05 14:17 25.79975 -80.29955 11 ft 0 kts 284°
2026-05-05 14:17 25.79982 -80.29985 13 ft 8 kts 285°
2026-05-05 14:17 25.80009 -80.30089 13 ft 20 kts 287°
2026-05-05 14:18 25.80070 -80.30146 14 ft 2 kts 56°
2026-05-05 14:18 25.80083 -80.29966 11 ft 62 kts 86°
2026-05-05 14:18 25.80117 -80.29175 15 ft 141 kts 86°
2026-05-05 14:18 25.80158 -80.27958 581 ft 166 kts 85°
2026-05-05 14:19 25.80238 -80.26584 1385 ft 184 kts 82°
2026-05-05 14:19 25.80347 -80.25133 2175 ft 203 kts 85°
2026-05-05 14:19 25.80603 -80.23782 3877 ft 148 kts 67°
2026-05-05 14:19 25.80987 -80.22598 4524 ft 187 kts 70°
2026-05-05 14:20 25.81475 -80.21002 4480 ft 249 kts 70°
2026-05-05 14:20 25.82092 -80.19018 4844 ft 286 kts 70°
2026-05-05 14:20 25.82758 -80.16894 4796 ft 294 kts 70°
2026-05-05 14:20 25.83416 -80.14808 4707 ft 300 kts 70°
2026-05-05 14:21 25.84152 -80.12488 4703 ft 329 kts 70°
2026-05-05 14:21 25.84947 -80.10019 4894 ft 342 kts 68°